Location: Newark
(58.8333°N, 23.5833°E)
Time: 02:21:07
(UTC+00:00)

Tiros 1 despin weight - Pass Details

Date: 19 November 2019
Orbit: 594 x 642 km, 48.2° (Epoch: 12 December)

Event Time Altitude Azimuth Distance (km) Brightness Sun altitude
Rises 14:18:06 0° 244° (WSW) 2,834 ? -3.1°
Reaches altitude 10° 14:20:48 10° 228° (SW) 1,937 ? -3.4°
Maximum altitude 14:24:07 21° 180° (S) 1,365 ? -3.8°
Drops below altitude 10° 14:27:29 10° 131° (SE) 1,955 ? -4.1°
Sets 14:30:14 0° 115° (ESE) 2,868 ? -4.5°
